FW5198 Weather Reports


Display with metric or nautical units.
time (UTC)temp
F
wind
direction
speed
MPH
gust
MPH
rain 1hr
in
rain 24hr
in
rain mn
in
humidity
%
barometer
mb
20260504001543 64 44 1.0 4.0 0.00 0.00 0.00 47 1015.8
20260504000046 65 37 1.0 5.0 0.00 0.00 0.00 45 1015.7
20260503234543 65 25 2.0 9.0 0.00 0.00 0.00 43 1015.9
20260503233039 66 55 4.0 10.0 0.00 0.00 0.00 41 1016.0
20260503231541 67 49 3.0 7.0 0.00 0.00 0.00 40 1016.4
20260503230049 68 57 3.0 10.0 0.00 0.00 0.00 40 1016.3
20260503224550 68 100 2.0 8.0 0.00 0.00 0.00 40 1016.6
20260503223042 68 35 3.0 8.0 0.00 0.00 0.00 39 1016.5
20260503221551 68 348 3.0 13.0 0.00 0.00 0.00 39 1016.7
20260503220047 68 26 4.0 8.0 0.00 0.00 0.00 38 1016.9
20260503214545 67 58 4.0 12.0 0.00 0.02 0.00 40 1017.2
20260503213045 68 37 4.0 11.0 0.00 0.02 0.00 40 1017.4
20260503211541 67 360 6.0 12.0 0.00 0.02 0.00 39 1017.7
20260503210047 67 83 3.0 15.0 0.00 0.02 0.00 38 1018.1
20260503204553 68 46 5.0 12.0 0.00 0.04 0.00 37 1018.2
20260503203049 68 56 4.0 10.0 0.00 0.04 0.00 39 1018.3
20260503201541 67 26 7.0 11.0 0.00 0.04 0.00 40 1018.7
20260503200040 67 78 5.0 12.0 0.00 0.04 0.00 40 1019.1
20260503194548 67 75 3.0 11.0 0.00 0.04 0.00 38 1019.2
20260503193049 66 65 4.0 13.0 0.00 0.04 0.00 37 1019.6
20260503191608 66 23 3.0 10.0 0.00 0.04 0.00 40 1019.8
20260503190041 65 330 4.0 13.0 0.00 0.04 0.00 39 1020.0
20260503184541 66 352 1.0 9.0 0.00 0.04 0.00 38 1020.1
20260503183042 65 46 3.0 12.0 0.00 0.04 0.00 39 1020.4
20260503181549 64 27 5.0 10.0 0.00 0.04 0.00 40 1020.6
20260503180043 65 7 3.0 9.0 0.00 0.04 0.00 40 1020.7
20260503174552 65 49 2.0 4.0 0.00 0.04 0.00 38 1020.9
20260503173046 62 49 1.0 7.0 0.00 0.04 0.00 43 1021.2
20260503171541 63 46 3.0 7.0 0.00 0.04 0.00 41 1021.3
20260503081541 38 0 0.0 0.0 0.00 0.04 0.00 96 1020.7
20260503071538 39 0 0.0 0.0 0.00 0.04 0.00 95 1020.6
20260503054556 41 0 0.0 0.0 0.00 0.04 0.00 95 1020.6
20260503053040 41 0 0.0 0.0 0.00 0.04 0.00 95 1020.7
20260503051538 42 0 0.0 0.0 0.00 0.04 0.00 95 1020.8
20260503050040 42 0 0.0 0.0 0.00 0.04 0.00 95 1020.7
20260503044542 42 0 0.0 0.0 0.00 0.04 0.04 94 1020.4
20260503043051 42 0 0.0 0.0 0.00 0.04 0.04 94 1020.4
20260503041542 43 0 0.0 0.0 0.00 0.04 0.04 94 1020.3
20260503040041 43 0 0.0 0.0 0.00 0.04 0.04 94 1020.2
20260503034544 44 0 0.0 0.0 0.00 0.04 0.04 93 1020.3
20260503033038 44 0 0.0 0.0 0.00 0.04 0.04 93 1020.2
20260503031538 44 0 0.0 1.0 0.00 0.04 0.04 92 1020.2
20260503030043 45 0 0.0 0.0 0.00 0.04 0.04 91 1020.1
20260503024541 46 0 0.0 1.0 0.00 0.04 0.04 90 1020.1
20260503023039 46 0 0.0 1.0 0.00 0.04 0.04 89 1019.8
20260503021538 47 0 0.0 0.0 0.00 0.04 0.04 88 1019.7
20260503020039 48 0 0.0 0.0 0.00 0.04 0.04 86 1019.6
20260503014544 48 0 0.0 0.0 0.00 0.04 0.04 84 1019.4
20260503013043 49 0 0.0 1.0 0.00 0.04 0.04 82 1019.1
20260503011538 50 0 0.0 1.0 0.00 0.04 0.04 81 1018.9
20260503010041 51 0 0.0 3.0 0.00 0.04 0.04 79 1018.7
20260503004537 52 131 0.0 3.0 0.00 0.04 0.04 78 1018.8
20260503003047 53 0 0.0 2.0 0.00 0.04 0.04 78 1018.7